SCP
0 0 0 0 0 0 0 0 0 0 0 0 0 0 0 0 -0 -0 -0 -0 -0 -0 -0 0 0 0 0 0 0 0 0 0 0 0 0 0 0 0 0 0 0 0 0 0
0 0 0 0 0 0 0 0 0 0 -0 0 0 0 0 0 -0 -0 -0 -0 -0 0 0 0 -0 0 0 0 0 0 0 0 0 0 0 0 0 0 0 0 0 0 0 1
0 0 0 0 0 0 0 0 0 0 -0 0 0 0 0 0 0 -0 -0 0 -0 -0 -0 -0 0 0 0 0 0 0 0 0 0 0 0 0 0 1 1 1 1 1 1 1
0 0 0 0 0 0 0 0 0 0 0 -0 0 0 0 0 0 0 -0 0 0 0 -0 -0 0 0 1 1 0 0 0 0 0 0 0 0 0 1 1 1 1 1 1 1
0 0 0 0 0 0 0 0 0 0 0 0 0 0 0 0 0 0 0 0 0 0 0 0 0 0 0 0 0 0 0 0 0 0 0 0 0 0 0 1 1 1 1 1
0 0 0 0 0 0 0 0 0 0 0 0 0 0 0 0 0 0 0 1 1 0 0 0 0 0 0 0 0 0 0 0 0 0 0 0 0 0 0 0 0 0 0 0
0 0 0 0 0 0 0 0 1 1 1 1 0 1 1 1 1 1 0 1 1 -0 0 0 0 0 0 0 0 0 0 0 0 0 0 0 0 0 0 0 0 0 0 0
0 0 0 0 0 0 0 0 0 0 1 1 2 1 1 1 1 1 1 1 1 1 1 0 0 0 0 0 0 0 0 0 0 0 0 0 0 0 0 0 0 0 0 0
0 0 1 1 1 1 0 0 0 0 0 0 1 2 2 2 1 1 0 1 1 0 1 0 0 0 0 0 0 0 0 0 0 0 0 0 0 0 0 0 0 0 0 0
0 0 0 0 0 0 0 0 0 0 0 0 0 1 2 3 2 1 0 0 1 1 1 1 0 0 0 0 0 0 0 0 0 0 0 0 0 0 0 0 0 0 0 0
0 0 0 0 0 0 0 0 0 0 0 0 0 1 2 3 3 1 1 0 1 1 1 1 1 1 1 0 0 0 0 0 0 0 0 0 0 0 0 0 0 0 0 0
0 0 0 1 0 0 0 0 0 0 0 0 0 0 1 3 4 2 1 1 1 1 1 1 1 1 1 1 0 0 0 0 0 0 0 0 0 0 0 0 0 0 0 0
0 0 0 0 0 0 0 0 0 0 0 0 0 0 1 2 2 1 0 1 1 2 1 1 1 1 0 1 0 0 0 0 0 0 0 0 0 0 0 0 0 0 0 0
-0 0 0 0 0 0 0 0 0 0 0 0 0 0 1 1 1 1 0 0 1 1 1 1 1 1 1 1 1 0 0 0 0 0 0 0 0 0 0 0 0 0 0 0
0 0 -0 0 0 0 0 0 0 0 0 0 0 0 0 1 1 0 -0 0 1 1 1 1 2 1 1 1 0 0 0 0 0 0 0 0 0 0 0 0 0 0 0 0
0 0 0 0 0 0 0 0 0 0 0 0 0 0 0 1 1 0 0 0 1 1 1 1 1 1 1 1 0 0 0 0 0 0 0 0 0 0 0 0 0 0 0 0
-0 -0 0 0 0 0 0 0 0 0 0 0 0 0 0 1 1 1 0 0 0 1 1 1 1 1 0 0 0 0 0 0 0 0 0 0 0 0 0 0 0 0 -0 -0
-0 0 -0 0 0 0 0 0 0 0 0 0 0 0 0 1 1 1 0 1 1 0 0 0 0 0 0 0 0 0 0 0 0 0 0 0 0 0 0 0 0 0 -0 -0
0 -0 0 0 0 0 0 0 0 0 0 0 0 0 0 0 1 1 2 2 1 1 1 0 0 0 0 0 0 0 0 0 0 0 0 0 0 0 0 0 0 0 0 0
0 -0 0 0 0 0 0 0 0 0 0 0 0 0 0 1 1 1 2 2 1 1 1 0 0 0 0 0 0 0 0 0 0 0 0 0 0 0 0 0 -0 0 0 0
-0 -0 -0 0 0 0 0 0 0 0 0 0 0 0 0 1 1 1 1 1 1 1 0 0 0 0 0 0 0 0 0 0 0 0 0 -0 0 0 0 0 0 -0 0 0
-0 -0 -0 0 0 0 0 0 0 0 0 0 0 1 1 1 1 1 1 0 0 0 0 0 0 0 0 0 0 0 0 0 0 0 0 0 0 0 0 0 0 0 0 0
-0 -0 0 0 0 0 0 0 0 0 0 0 0 0 0 1 1 1 1 1 1 0 0 0 0 0 0 0 0 0 0 0 0 0 0 0 0 0 0 0 0 0 0 0
-0 -0 -0 -0 0 0 0 0 0 0 0 0 0 0 0 1 1 1 1 0 0 0 0 0 0 0 0 0 0 0 0 0 0 0 0 0 0 0 0 0 0 0 0 0
-0 -0 -0 0 0 0 0 0 0 0 0 0 0 1 1 1 1 1 0 0 0 0 0 0 0 0 0 0 0 0 0 0 0 0 0 0 0 0 0 0 0 0 0 0
0 0 -0 -0 0 0 0 0 0 0 0 0 0 0 0 0 0 0 0 0 0 0 0 0 0 0 0 0 0 0 0 0 0 0 0 0 0 0 0 0 0 0 0 0
0 -0 -0 0 0 0 0 0 0 0 0 0 0 1 0 0 0 0 0 0 0 -0 0 0 0 0 0 0 0 0 0 0 0 0 0 0 0 0 0 0 0 0 0 0
Wind_Speed_500mb
38 44 38 29 37 32 30 28 36 35 28 24 22 16 13 19 30 29 28 33 37 40 41 42 42 41 38 35 38 40 42 43 45 46 45 48 51 52 48 53 55 54 54 55
39 37 42 44 38 41 43 36 40 41 40 28 25 7 16 24 36 39 36 36 35 35 35 38 39 39 40 39 38 38 37 39 41 45 43 45 47 54 51 51 53 55 56 51
41 42 45 48 42 38 41 40 34 36 37 34 24 21 22 28 36 40 40 38 40 42 42 39 37 37 34 33 32 32 32 33 35 37 39 44 45 49 51 52 47 48 46 46
31 35 53 35 38 34 41 46 41 33 32 38 25 28 23 26 33 43 45 41 37 37 38 37 35 31 31 28 27 26 27 30 31 33 34 35 39 44 41 44 45 48 49 46
29 33 41 34 21 24 37 44 46 37 30 28 14 16 20 12 18 28 39 44 45 43 42 41 36 32 30 27 23 22 22 20 20 23 27 30 32 33 35 42 44 45 45 48
32 39 52 35 32 4 14 33 37 29 33 31 16 19 12 11 5 17 31 42 48 49 46 41 37 34 31 27 24 20 18 17 15 13 13 17 20 24 25 27 29 31 33 32
34 40 44 32 5 6 26 12 7 12 16 22 20 4 10 4 7 9 26 42 48 52 52 47 44 40 36 32 28 26 22 18 16 15 14 13 13 14 15 17 17 18 20 20
37 43 57 21 9 27 10 7 8 8 6 5 10 7 5 5 9 8 27 42 52 51 49 50 48 44 40 36 34 30 25 21 18 15 12 13 13 12 11 9 12 13 11 9
25 18 18 17 11 9 9 8 7 7 7 9 7 8 8 6 9 15 27 42 54 53 50 49 50 46 42 37 32 27 21 18 15 13 13 14 14 13 10 16 14 10 6 10
25 27 21 9 10 6 5 12 14 13 12 10 12 16 15 9 8 16 28 43 53 53 51 49 48 46 35 36 30 27 24 21 17 14 16 14 11 9 10 9 10 9 7 7
32 29 36 25 12 4 4 14 19 17 15 15 15 16 20 16 12 12 27 39 52 48 44 44 44 43 33 32 32 28 23 19 16 15 18 20 20 18 16 17 17 12 9 6
30 40 22 25 33 10 19 25 23 19 17 16 18 21 21 18 13 10 26 38 48 47 46 47 46 40 35 30 28 26 22 18 15 14 16 17 14 15 16 14 13 13 13 13
50 57 62 57 53 49 41 35 31 23 20 20 20 19 22 19 14 12 25 38 48 57 54 53 48 43 36 33 31 28 22 20 16 16 18 20 19 13 9 10 10 9 6 3
54 53 59 59 57 53 47 36 30 29 25 25 23 19 20 15 12 12 25 38 47 54 59 60 57 46 37 30 34 27 22 25 16 18 21 20 18 16 11 7 7 6 9 9
45 52 64 66 60 58 50 48 42 38 31 26 21 19 17 15 10 14 27 37 50 53 59 66 55 45 42 46 38 30 22 22 22 22 22 21 17 16 12 11 11 11 9 9
69 69 55 46 56 57 56 52 46 44 37 29 26 20 14 15 16 18 31 43 50 59 61 57 52 47 41 38 35 28 28 32 30 25 23 21 20 17 13 11 12 9 8 9
75 65 64 59 43 51 55 58 56 52 44 37 31 23 17 17 19 23 29 39 45 46 48 54 51 43 39 34 33 28 31 33 33 26 23 21 18 16 13 11 12 10 10 15
88 83 65 62 42 31 40 48 52 52 49 41 31 25 24 25 22 27 39 42 42 37 42 44 47 44 35 34 34 33 34 32 32 28 25 22 21 17 17 15 13 11 10 5
49 59 60 55 53 45 40 34 39 43 45 42 34 32 32 27 26 30 43 47 47 44 45 45 41 35 33 37 37 36 33 32 33 28 26 25 23 20 20 18 16 13 11 5
13 26 45 47 47 47 47 48 37 30 35 36 30 31 35 32 33 35 31 35 39 42 47 47 45 33 35 38 42 33 34 33 31 29 26 23 23 23 22 21 18 15 13 10
13 22 33 37 38 39 41 39 43 34 30 29 29 35 37 33 40 39 32 32 33 40 52 48 41 34 36 38 42 33 32 31 30 29 26 27 25 23 21 20 19 17 13 11
11 21 28 33 34 33 33 36 41 35 28 25 28 33 33 34 37 49 43 36 35 49 56 49 36 37 36 39 36 32 31 31 29 27 27 28 25 23 22 22 22 19 15 13
15 8 17 16 16 17 24 30 31 31 30 31 32 34 34 33 39 43 44 41 42 59 50 41 38 39 40 35 34 33 32 31 28 27 27 24 21 19 19 21 23 23 23 21
17 14 14 17 19 23 24 24 25 27 28 28 33 34 32 34 33 35 32 43 50 59 46 40 35 31 35 33 32 32 32 31 29 28 25 22 19 15 15 17 17 18 21 23
21 17 13 12 14 17 19 18 20 21 29 29 30 32 33 35 32 33 30 42 48 49 37 35 28 29 32 28 29 29 30 30 28 27 25 22 21 20 20 19 19 20 21 22
34 28 28 12 7 17 12 11 18 22 33 37 32 33 30 32 33 31 48 38 39 39 24 30 37 30 29 26 27 28 27 26 25 26 25 23 23 23 23 19 17 16 17 23
11 17 22 27 22 28 37 25 28 28 33 35 45 41 31 34 38 39 42 42 42 36 34 30 30 30 24 21 20 20 20 22 28 21 24 32 34 34 34 34 33 31 31 26
Wind_Direction_500mb
257 270 280 265 272 241 223 249 266 277 274 254 275 265 242 206 191 183 176 168 178 181 185 188 196 204 209 208 208 211 218 220 221 222 224 226 227 230 233 234 240 245 247 246
266 266 267 265 254 264 261 241 258 268 273 282 276 219 216 194 192 189 182 176 177 179 186 190 194 200 206 211 214 217 218 222 223 227 226 227 230 233 232 237 240 242 245 237
256 259 265 258 254 257 260 247 246 251 254 257 248 222 212 193 193 198 193 189 186 183 182 182 186 191 196 202 203 207 212 217 223 226 227 229 230 232 235 238 238 234 235 236
264 269 252 257 261 265 262 244 236 250 265 273 235 218 218 214 202 200 196 191 186 180 173 168 167 167 169 179 190 198 208 218 222 225 228 230 231 232 232 237 237 235 238 237
255 249 258 252 256 264 259 257 256 239 240 249 214 220 209 201 214 210 205 195 184 177 170 164 169 174 175 175 180 187 194 199 206 214 223 227 228 228 229 230 230 232 239 243
247 251 249 256 254 159 292 258 254 278 232 227 223 222 160 120 180 206 201 193 183 175 167 170 170 163 161 166 167 165 160 161 163 174 196 204 208 214 217 226 227 226 227 232
233 249 255 264 11 309 242 279 36 332 278 250 222 2 110 63 50 191 192 190 184 178 171 173 167 164 166 164 160 160 156 153 153 161 165 164 167 169 182 197 210 221 233 245
230 244 250 231 195 243 354 8 32 63 31 284 285 312 303 268 251 193 182 183 182 177 171 170 167 170 169 165 169 169 171 177 176 178 178 167 162 155 152 171 184 194 215 235
288 297 28 344 339 6 330 313 335 348 2 5 356 348 320 292 245 208 191 187 184 179 173 169 171 175 168 174 176 176 174 172 174 176 173 179 174 163 165 202 201 198 216 259
293 261 289 313 318 265 332 335 331 337 331 335 347 354 343 324 289 208 194 186 185 182 176 169 170 171 168 175 181 172 171 170 171 181 183 173 168 175 170 177 195 217 223 221
270 265 272 260 233 183 315 321 326 332 350 352 344 345 343 328 326 208 194 187 183 184 178 168 167 165 166 183 181 172 169 174 173 187 182 197 201 200 197 201 204 218 233 230
257 266 286 254 197 242 294 293 306 299 315 339 344 339 331 332 311 220 192 182 176 178 178 171 167 163 166 182 177 178 185 188 192 194 191 192 182 194 191 193 203 217 230 233
262 261 266 265 267 269 278 273 277 275 293 319 316 318 324 315 292 231 191 183 182 179 177 169 166 169 175 180 181 187 197 198 203 189 184 181 173 174 184 199 194 176 178 202
268 267 263 258 259 261 256 258 261 259 268 282 303 319 317 300 270 223 197 190 183 182 180 175 177 183 178 189 191 189 202 203 186 181 185 183 181 176 180 191 162 151 141 122
278 268 263 260 256 250 248 247 250 251 255 266 279 296 309 284 269 219 201 187 182 184 182 182 184 190 189 180 180 184 199 196 175 188 184 183 180 181 184 187 181 179 162 147
297 289 279 272 249 243 238 239 241 246 244 254 267 270 278 262 247 244 199 187 182 187 180 182 195 192 183 170 174 181 192 194 172 173 187 173 180 183 188 189 189 196 195 207
280 264 264 259 249 238 234 233 238 239 239 244 250 250 255 248 234 234 195 188 181 185 190 191 193 187 189 184 176 182 189 188 171 174 185 184 186 192 196 186 192 204 205 198
266 257 247 248 253 233 232 233 233 232 237 241 248 248 245 242 231 224 198 188 192 193 190 186 186 185 187 179 174 180 184 184 181 185 192 197 191 195 196 196 192 185 184 167
275 251 230 230 236 235 238 237 236 235 231 226 230 233 229 228 223 199 185 186 185 179 182 180 186 185 178 179 174 175 180 176 184 187 189 192 189 193 192 190 185 179 171 168
298 214 207 218 225 230 233 232 228 224 218 213 224 221 216 215 201 185 177 179 183 182 183 182 184 181 179 183 166 174 175 178 186 185 190 192 188 189 191 193 193 195 191 188
248 218 217 223 234 231 232 223 217 220 213 215 220 212 211 212 207 201 199 193 196 190 192 188 182 182 182 180 165 174 178 183 189 190 195 191 191 192 198 201 204 202 207 216
241 225 229 230 236 235 225 218 211 215 215 222 215 206 206 209 208 207 210 209 201 195 188 185 183 185 184 181 175 180 185 188 190 191 191 190 193 200 211 213 212 219 229 237
13 226 217 216 209 196 186 186 196 209 219 214 205 198 201 209 198 189 191 193 192 180 178 180 188 190 187 173 181 187 189 189 188 187 188 191 198 210 221 223 229 235 236 236
21 83 134 161 173 173 180 189 200 211 207 201 201 202 201 198 198 191 199 192 180 178 173 186 195 186 184 182 183 188 189 190 189 190 194 197 205 221 230 229 234 238 233 230
49 59 86 136 161 171 169 188 203 209 200 193 188 183 184 180 183 169 170 173 173 172 169 192 192 188 179 184 186 188 189 190 195 201 206 216 226 237 243 244 244 241 239 243
38 59 54 48 185 173 165 186 183 179 176 173 169 164 157 164 169 163 144 149 151 158 159 196 187 185 181 189 193 194 194 200 208 217 223 230 237 231 231 223 225 233 231 232
40 103 49 23 132 126 97 113 134 153 173 153 151 152 138 145 144 148 150 151 157 164 179 179 183 175 179 187 186 193 200 210 209 216 221 223 230 245 255 257 254 252 254 247
Wind_Speed_850mb
38 44 38 29 37 32 30 28 36 35 28 24 22 16 13 19 30 29 28 33 37 40 41 42 42 41 38 35 38 40 42 43 45 46 45 48 51 52 48 53 55 54 54 55
39 37 42 44 38 41 43 36 40 41 40 28 25 7 16 24 36 39 36 36 35 35 35 38 39 39 40 39 38 38 37 39 41 45 43 45 47 54 51 51 53 55 56 51
41 42 45 48 42 38 41 40 34 36 37 34 24 21 22 28 36 40 40 38 40 42 42 39 37 37 34 33 32 32 32 33 35 37 39 44 45 49 51 52 47 48 46 46
31 35 53 35 38 34 41 46 41 33 32 38 25 28 23 26 33 43 45 41 37 37 38 37 35 31 31 28 27 26 27 30 31 33 34 35 39 44 41 44 45 48 49 46
29 33 41 34 21 24 37 44 46 37 30 28 14 16 20 12 18 28 39 44 45 43 42 41 36 32 30 27 23 22 22 20 20 23 27 30 32 33 35 42 44 45 45 48
32 39 52 35 32 4 14 33 37 29 33 31 16 19 12 11 5 17 31 42 48 49 46 41 37 34 31 27 24 20 18 17 15 13 13 17 20 24 25 27 29 31 33 32
34 40 44 32 5 6 26 12 7 12 16 22 20 4 10 4 7 9 26 42 48 52 52 47 44 40 36 32 28 26 22 18 16 15 14 13 13 14 15 17 17 18 20 20
37 43 57 21 9 27 10 7 8 8 6 5 10 7 5 5 9 8 27 42 52 51 49 50 48 44 40 36 34 30 25 21 18 15 12 13 13 12 11 9 12 13 11 9
25 18 18 17 11 9 9 8 7 7 7 9 7 8 8 6 9 15 27 42 54 53 50 49 50 46 42 37 32 27 21 18 15 13 13 14 14 13 10 16 14 10 6 10
25 27 21 9 10 6 5 12 14 13 12 10 12 16 15 9 8 16 28 43 53 53 51 49 48 46 35 36 30 27 24 21 17 14 16 14 11 9 10 9 10 9 7 7
32 29 36 25 12 4 4 14 19 17 15 15 15 16 20 16 12 12 27 39 52 48 44 44 44 43 33 32 32 28 23 19 16 15 18 20 20 18 16 17 17 12 9 6
30 40 22 25 33 10 19 25 23 19 17 16 18 21 21 18 13 10 26 38 48 47 46 47 46 40 35 30 28 26 22 18 15 14 16 17 14 15 16 14 13 13 13 13
50 57 62 57 53 49 41 35 31 23 20 20 20 19 22 19 14 12 25 38 48 57 54 53 48 43 36 33 31 28 22 20 16 16 18 20 19 13 9 10 10 9 6 3
54 53 59 59 57 53 47 36 30 29 25 25 23 19 20 15 12 12 25 38 47 54 59 60 57 46 37 30 34 27 22 25 16 18 21 20 18 16 11 7 7 6 9 9
45 52 64 66 60 58 50 48 42 38 31 26 21 19 17 15 10 14 27 37 50 53 59 66 55 45 42 46 38 30 22 22 22 22 22 21 17 16 12 11 11 11 9 9
69 69 55 46 56 57 56 52 46 44 37 29 26 20 14 15 16 18 31 43 50 59 61 57 52 47 41 38 35 28 28 32 30 25 23 21 20 17 13 11 12 9 8 9
75 65 64 59 43 51 55 58 56 52 44 37 31 23 17 17 19 23 29 39 45 46 48 54 51 43 39 34 33 28 31 33 33 26 23 21 18 16 13 11 12 10 10 15
88 83 65 62 42 31 40 48 52 52 49 41 31 25 24 25 22 27 39 42 42 37 42 44 47 44 35 34 34 33 34 32 32 28 25 22 21 17 17 15 13 11 10 5
49 59 60 55 53 45 40 34 39 43 45 42 34 32 32 27 26 30 43 47 47 44 45 45 41 35 33 37 37 36 33 32 33 28 26 25 23 20 20 18 16 13 11 5
13 26 45 47 47 47 47 48 37 30 35 36 30 31 35 32 33 35 31 35 39 42 47 47 45 33 35 38 42 33 34 33 31 29 26 23 23 23 22 21 18 15 13 10
13 22 33 37 38 39 41 39 43 34 30 29 29 35 37 33 40 39 32 32 33 40 52 48 41 34 36 38 42 33 32 31 30 29 26 27 25 23 21 20 19 17 13 11
11 21 28 33 34 33 33 36 41 35 28 25 28 33 33 34 37 49 43 36 35 49 56 49 36 37 36 39 36 32 31 31 29 27 27 28 25 23 22 22 22 19 15 13
15 8 17 16 16 17 24 30 31 31 30 31 32 34 34 33 39 43 44 41 42 59 50 41 38 39 40 35 34 33 32 31 28 27 27 24 21 19 19 21 23 23 23 21
17 14 14 17 19 23 24 24 25 27 28 28 33 34 32 34 33 35 32 43 50 59 46 40 35 31 35 33 32 32 32 31 29 28 25 22 19 15 15 17 17 18 21 23
21 17 13 12 14 17 19 18 20 21 29 29 30 32 33 35 32 33 30 42 48 49 37 35 28 29 32 28 29 29 30 30 28 27 25 22 21 20 20 19 19 20 21 22
34 28 28 12 7 17 12 11 18 22 33 37 32 33 30 32 33 31 48 38 39 39 24 30 37 30 29 26 27 28 27 26 25 26 25 23 23 23 23 19 17 16 17 23
11 17 22 27 22 28 37 25 28 28 33 35 45 41 31 34 38 39 42 42 42 36 34 30 30 30 24 21 20 20 20 22 28 21 24 32 34 34 34 34 33 31 31 26
Wind_Direction_850mb
257 270 280 265 272 241 223 249 266 277 274 254 275 265 242 206 191 183 176 168 178 181 185 188 196 204 209 208 208 211 218 220 221 222 224 226 227 230 233 234 240 245 247 246
266 266 267 265 254 264 261 241 258 268 273 282 276 219 216 194 192 189 182 176 177 179 186 190 194 200 206 211 214 217 218 222 223 227 226 227 230 233 232 237 240 242 245 237
256 259 265 258 254 257 260 247 246 251 254 257 248 222 212 193 193 198 193 189 186 183 182 182 186 191 196 202 203 207 212 217 223 226 227 229 230 232 235 238 238 234 235 236
264 269 252 257 261 265 262 244 236 250 265 273 235 218 218 214 202 200 196 191 186 180 173 168 167 167 169 179 190 198 208 218 222 225 228 230 231 232 232 237 237 235 238 237
255 249 258 252 256 264 259 257 256 239 240 249 214 220 209 201 214 210 205 195 184 177 170 164 169 174 175 175 180 187 194 199 206 214 223 227 228 228 229 230 230 232 239 243
247 251 249 256 254 159 292 258 254 278 232 227 223 222 160 120 180 206 201 193 183 175 167 170 170 163 161 166 167 165 160 161 163 174 196 204 208 214 217 226 227 226 227 232
233 249 255 264 11 309 242 279 36 332 278 250 222 2 110 63 50 191 192 190 184 178 171 173 167 164 166 164 160 160 156 153 153 161 165 164 167 169 182 197 210 221 233 245
230 244 250 231 195 243 354 8 32 63 31 284 285 312 303 268 251 193 182 183 182 177 171 170 167 170 169 165 169 169 171 177 176 178 178 167 162 155 152 171 184 194 215 235
288 297 28 344 339 6 330 313 335 348 2 5 356 348 320 292 245 208 191 187 184 179 173 169 171 175 168 174 176 176 174 172 174 176 173 179 174 163 165 202 201 198 216 259
293 261 289 313 318 265 332 335 331 337 331 335 347 354 343 324 289 208 194 186 185 182 176 169 170 171 168 175 181 172 171 170 171 181 183 173 168 175 170 177 195 217 223 221
270 265 272 260 233 183 315 321 326 332 350 352 344 345 343 328 326 208 194 187 183 184 178 168 167 165 166 183 181 172 169 174 173 187 182 197 201 200 197 201 204 218 233 230
257 266 286 254 197 242 294 293 306 299 315 339 344 339 331 332 311 220 192 182 176 178 178 171 167 163 166 182 177 178 185 188 192 194 191 192 182 194 191 193 203 217 230 233
262 261 266 265 267 269 278 273 277 275 293 319 316 318 324 315 292 231 191 183 182 179 177 169 166 169 175 180 181 187 197 198 203 189 184 181 173 174 184 199 194 176 178 202
268 267 263 258 259 261 256 258 261 259 268 282 303 319 317 300 270 223 197 190 183 182 180 175 177 183 178 189 191 189 202 203 186 181 185 183 181 176 180 191 162 151 141 122
278 268 263 260 256 250 248 247 250 251 255 266 279 296 309 284 269 219 201 187 182 184 182 182 184 190 189 180 180 184 199 196 175 188 184 183 180 181 184 187 181 179 162 147
297 289 279 272 249 243 238 239 241 246 244 254 267 270 278 262 247 244 199 187 182 187 180 182 195 192 183 170 174 181 192 194 172 173 187 173 180 183 188 189 189 196 195 207
280 264 264 259 249 238 234 233 238 239 239 244 250 250 255 248 234 234 195 188 181 185 190 191 193 187 189 184 176 182 189 188 171 174 185 184 186 192 196 186 192 204 205 198
266 257 247 248 253 233 232 233 233 232 237 241 248 248 245 242 231 224 198 188 192 193 190 186 186 185 187 179 174 180 184 184 181 185 192 197 191 195 196 196 192 185 184 167
275 251 230 230 236 235 238 237 236 235 231 226 230 233 229 228 223 199 185 186 185 179 182 180 186 185 178 179 174 175 180 176 184 187 189 192 189 193 192 190 185 179 171 168
298 214 207 218 225 230 233 232 228 224 218 213 224 221 216 215 201 185 177 179 183 182 183 182 184 181 179 183 166 174 175 178 186 185 190 192 188 189 191 193 193 195 191 188
248 218 217 223 234 231 232 223 217 220 213 215 220 212 211 212 207 201 199 193 196 190 192 188 182 182 182 180 165 174 178 183 189 190 195 191 191 192 198 201 204 202 207 216
241 225 229 230 236 235 225 218 211 215 215 222 215 206 206 209 208 207 210 209 201 195 188 185 183 185 184 181 175 180 185 188 190 191 191 190 193 200 211 213 212 219 229 237
13 226 217 216 209 196 186 186 196 209 219 214 205 198 201 209 198 189 191 193 192 180 178 180 188 190 187 173 181 187 189 189 188 187 188 191 198 210 221 223 229 235 236 236
21 83 134 161 173 173 180 189 200 211 207 201 201 202 201 198 198 191 199 192 180 178 173 186 195 186 184 182 183 188 189 190 189 190 194 197 205 221 230 229 234 238 233 230
49 59 86 136 161 171 169 188 203 209 200 193 188 183 184 180 183 169 170 173 173 172 169 192 192 188 179 184 186 188 189 190 195 201 206 216 226 237 243 244 244 241 239 243
38 59 54 48 185 173 165 186 183 179 176 173 169 164 157 164 169 163 144 149 151 158 159 196 187 185 181 189 193 194 194 200 208 217 223 230 237 231 231 223 225 233 231 232
40 103 49 23 132 126 97 113 134 153 173 153 151 152 138 145 144 148 150 151 157 164 179 179 183 175 179 187 186 193 200 210 209 216 221 223 230 245 255 257 254 252 254 247